Temp
80 81 80 80 80 81 80 81 81 81 81 81 80 80 81 82 83 82 83 82 82 82 82 81 81 81 82 80 81 82 82 81 82 81 80 80 79 81 84 82 83 80
80 81 81 81 80 81 80 81 81 81 81 81 81 81 82 82 83 83 82 82 82 82 81 82 81 81 81 81 80 80 80 80 80 84 81 80 80 81 82 81 83 81
81 80 81 81 81 81 83 83 82 81 82 83 83 83 83 83 83 82 82 82 81 83 81 81 81 81 81 80 80 80 80 79 79 82 81 80 80 81 80 83 82 83
80 82 82 83 82 82 82 82 81 81 83 82 83 85 86 87 83 82 82 84 81 81 82 81 81 82 81 81 80 80 80 79 80 80 79 80 80 81 81 81 82 82
81 82 82 83 82 82 82 82 83 82 83 82 84 83 84 82 83 83 82 82 81 81 81 82 81 82 80 81 80 80 80 80 80 79 79 78 79 80 82 81 80 81
81 81 81 82 82 82 83 81 82 84 83 84 84 84 85 83 84 83 83 83 83 83 83 83 82 82 82 80 80 80 80 81 80 79 79 78 79 81 84 82 81 81
83 82 82 83 83 83 84 82 82 83 84 84 84 83 84 83 83 83 83 83 83 82 84 82 81 81 82 81 80 79 79 79 79 79 79 79 79 79 83 82 80 79
84 84 84 83 84 83 84 83 83 82 84 82 84 83 85 85 84 85 84 83 84 82 81 83 81 81 83 81 80 80 79 83 81 79 78 79 78 79 79 82 80 79
84 84 84 83 85 84 85 86 85 84 84 84 84 85 84 85 84 85 83 83 83 82 82 81 81 82 82 82 81 80 80 81 82 80 79 79 79 79 80 80 79 79
84 84 85 85 85 85 86 87 87 87 84 86 85 86 85 84 85 85 82 82 83 81 82 81 82 82 82 82 81 81 81 80 79 80 80 81 80 80 80 80 80 79
82 85 86 85 86 86 87 88 88 88 87 86 87 87 87 85 83 85 82 81 84 82 81 81 81 82 82 82 82 83 82 82 82 79 80 81 81 81 83 81 80 80
79 81 83 86 87 87 87 88 89 88 88 88 87 87 86 87 85 85 85 82 82 83 82 81 80 81 81 82 83 83 82 83 82 81 81 81 82 82 82 82 82 81
77 78 78 79 80 81 83 84 87 90 89 89 89 89 88 87 88 85 85 84 83 84 83 81 81 81 80 81 82 82 82 82 82 82 82 81 82 83 83 83 83 82
75 77 77 76 77 76 77 78 79 82 85 88 88 88 89 88 88 88 85 85 85 85 84 83 81 81 79 80 81 82 82 81 82 82 82 82 83 82 83 84 84 85
75 76 76 77 77 75 77 78 79 79 80 82 85 89 90 90 89 89 87 85 85 84 84 84 83 83 82 81 80 81 82 81 82 82 81 81 81 83 83 83 85 86
75 75 75 76 76 75 75 77 79 79 80 80 81 85 88 88 88 86 88 87 85 84 84 85 84 85 83 79 79 83 82 84 82 82 82 81 80 81 82 83 86 86
75 74 74 74 75 76 76 76 77 79 78 78 79 77 80 83 87 88 87 88 88 86 85 86 87 87 79 72 73 76 83 82 81 79 80 81 80 79 80 82 83 84
74 75 75 74 75 74 75 76 77 77 77 77 77 77 77 80 83 86 87 86 88 88 86 87 86 82 73 71 71 71 77 83 83 82 81 81 82 81 81 81 82 83
73 73 74 74 75 76 76 76 76 76 76 76 75 77 78 77 77 80 84 86 86 85 87 87 87 79 71 70 70 70 70 78 84 83 83 81 81 82 82 80 80 80
72 72 73 74 75 75 75 76 75 74 74 74 74 74 77 78 79 77 78 79 83 83 83 87 86 80 71 68 68 68 69 72 84 84 83 83 81 81 83 82 80 80
72 72 73 73 74 75 75 74 73 73 74 75 75 75 76 76 78 78 78 79 81 84 83 84 88 77 69 67 65 65 68 70 82 85 84 84 84 82 80 82 81 81
72 71 71 73 74 74 74 74 74 74 74 74 75 75 76 77 77 78 79 79 81 82 84 85 89 74 68 67 65 64 66 74 80 82 83 84 83 82 81 80 80 82
73 73 72 73 73 73 73 74 73 73 73 74 74 74 74 75 76 78 78 80 81 81 81 82 84 79 70 62 64 63 65 75 78 80 81 82 82 82 80 79 80 80
73 73 72 73 72 72 73 73 73 73 73 74 73 73 74 75 77 77 78 80 80 81 83 82 84 72 61 60 57 61 67 75 77 79 80 80 81 82 82 80 80 83
73 73 73 73 73 72 73 72 72 72 73 73 73 74 74 74 76 76 77 79 81 82 82 78 73 72 66 65 60 57 62 73 77 78 79 80 80 80 81 81 81 83
73 73 73 73 72 73 73 73 73 73 73 73 73 73 73 74 76 76 77 78 80 81 84 75 74 75 74 63 63 57 57 70 74 76 77 79 80 80 80 81 81 82
MSLP
1017.93 1018.01 1018.37 1018.57 1018.81 1018.85 1019.13 1019.41 1019.49 1019.69 1019.85 1019.89 1020.21 1020.25 1020.21 1020.05 1019.85 1019.97 1020.01 1020.05 1020.09 1020.21 1020.21 1020.29 1020.25 1020.33 1020.29 1020.33 1020.33 1020.41 1020.57 1020.69 1020.73 1020.69 1020.81 1020.85 1020.93 1020.97 1021.09 1020.85 1020.77 1020.77
1017.89 1017.93 1018.09 1018.29 1018.57 1018.65 1018.85 1018.93 1019.25 1019.41 1019.61 1019.65 1019.73 1019.85 1019.85 1019.85 1019.85 1019.81 1020.01 1020.13 1020.09 1020.17 1020.09 1020.17 1020.25 1020.25 1020.37 1020.45 1020.45 1020.53 1020.65 1020.65 1020.85 1020.49 1020.81 1020.93 1020.89 1020.85 1020.93 1020.85 1020.73 1020.57
1017.77 1017.97 1018.09 1018.37 1018.49 1018.65 1018.69 1018.73 1018.89 1019.17 1019.33 1019.37 1019.37 1019.49 1019.69 1019.65 1019.81 1019.81 1019.89 1020.01 1020.21 1020.17 1020.21 1020.21 1020.29 1020.33 1020.37 1020.41 1020.45 1020.61 1020.69 1020.77 1020.81 1020.61 1020.73 1020.89 1020.77 1020.89 1020.81 1020.69 1020.65 1020.61
1017.69 1017.69 1017.85 1018.01 1018.13 1018.37 1018.41 1018.69 1018.81 1018.93 1018.97 1019.25 1019.41 1019.29 1019.33 1019.45 1019.61 1019.89 1019.97 1020.01 1020.21 1020.29 1020.25 1020.29 1020.37 1020.37 1020.41 1020.45 1020.53 1020.69 1020.65 1020.69 1020.65 1020.57 1020.81 1020.77 1020.73 1020.69 1020.73 1020.61 1020.65 1020.61
1017.57 1017.61 1017.61 1017.73 1017.81 1017.93 1018.17 1018.49 1018.73 1018.77 1018.85 1018.89 1018.93 1019.01 1019.17 1019.41 1019.65 1019.85 1020.01 1020.13 1020.21 1020.37 1020.37 1020.41 1020.37 1020.41 1020.41 1020.53 1020.57 1020.81 1020.77 1020.81 1020.69 1020.69 1020.89 1020.97 1020.77 1020.69 1020.65 1020.65 1020.73 1020.81
1017.37 1017.37 1017.41 1017.57 1017.65 1017.81 1018.05 1018.25 1018.33 1018.49 1018.61 1018.77 1018.77 1018.77 1018.93 1019.17 1019.41 1019.69 1019.89 1020.13 1020.17 1020.33 1020.45 1020.41 1020.49 1020.41 1020.41 1020.57 1020.69 1020.77 1020.81 1020.89 1020.73 1020.77 1020.93 1021.05 1020.97 1020.65 1020.61 1020.65 1020.73 1020.85
1017.29 1017.29 1017.37 1017.33 1017.53 1017.53 1017.77 1017.89 1017.97 1018.05 1018.21 1018.33 1018.41 1018.65 1018.69 1019.01 1019.29 1019.41 1019.61 1019.81 1020.01 1020.17 1020.37 1020.45 1020.49 1020.53 1020.41 1020.57 1020.73 1020.81 1020.77 1020.73 1020.73 1020.77 1021.01 1021.01 1020.97 1020.93 1020.65 1020.73 1020.81 1020.85
1017.09 1017.05 1017.09 1017.21 1017.37 1017.49 1017.61 1017.65 1017.73 1017.81 1017.81 1018.05 1018.37 1018.37 1018.37 1018.69 1018.97 1019.13 1019.29 1019.53 1019.81 1019.97 1020.13 1020.21 1020.33 1020.41 1020.37 1020.45 1020.77 1020.85 1020.85 1020.65 1020.77 1020.81 1020.97 1021.05 1020.97 1021.05 1020.85 1020.69 1020.77 1020.93
1016.81 1016.97 1017.01 1017.13 1017.25 1017.33 1017.45 1017.41 1017.45 1017.49 1017.49 1017.85 1018.05 1018.17 1018.13 1018.33 1018.61 1018.81 1019.09 1019.29 1019.61 1019.81 1019.93 1020.09 1020.17 1020.25 1020.21 1020.33 1020.57 1020.69 1020.85 1020.73 1020.61 1020.73 1020.85 1021.01 1021.09 1021.05 1020.89 1020.73 1020.85 1020.93
1016.69 1016.69 1016.85 1016.97 1017.17 1017.09 1017.17 1017.09 1017.09 1017.17 1017.21 1017.45 1017.69 1017.81 1018.09 1018.13 1018.25 1018.49 1018.81 1019.13 1019.41 1019.65 1019.77 1019.89 1020.01 1020.05 1020.09 1020.13 1020.29 1020.41 1020.57 1020.61 1020.57 1020.61 1020.61 1020.69 1020.77 1020.77 1020.73 1020.73 1020.81 1020.93
1016.57 1016.45 1016.57 1016.69 1016.85 1016.85 1016.89 1016.77 1016.77 1016.85 1016.97 1017.21 1017.37 1017.65 1017.73 1017.97 1018.17 1018.21 1018.61 1018.97 1019.21 1019.41 1019.61 1019.69 1019.77 1019.81 1019.97 1020.01 1020.05 1020.01 1020.17 1020.25 1020.33 1020.41 1020.45 1020.41 1020.41 1020.41 1020.37 1020.41 1020.53 1020.69
1016.37 1016.41 1016.49 1016.41 1016.37 1016.49 1016.57 1016.57 1016.53 1016.61 1016.69 1016.85 1017.01 1017.37 1017.49 1017.61 1017.97 1018.17 1018.37 1018.73 1018.85 1018.97 1019.21 1019.33 1019.41 1019.57 1019.69 1019.77 1019.81 1019.89 1019.97 1019.97 1020.01 1020.09 1020.13 1020.17 1020.17 1020.13 1020.05 1020.05 1020.21 1020.25
1016.45 1016.53 1016.61 1016.65 1016.37 1016.41 1016.53 1016.61 1016.57 1016.41 1016.53 1016.69 1016.61 1016.93 1017.25 1017.49 1017.57 1017.89 1018.01 1018.29 1018.53 1018.65 1018.93 1019.09 1019.21 1019.33 1019.53 1019.61 1019.61 1019.69 1019.81 1019.89 1019.89 1019.85 1019.89 1019.89 1019.89 1019.85 1019.73 1019.69 1019.73 1019.81
1016.73 1016.37 1016.53 1016.73 1016.81 1016.61 1016.61 1016.77 1016.93 1017.05 1016.89 1016.45 1016.41 1016.73 1016.89 1017.13 1017.33 1017.53 1017.69 1017.85 1018.13 1018.37 1018.53 1018.73 1019.01 1019.21 1019.37 1019.45 1019.49 1019.53 1019.65 1019.69 1019.69 1019.69 1019.73 1019.69 1019.57 1019.53 1019.45 1019.45 1019.41 1019.37
1017.17 1016.33 1016.37 1016.53 1016.69 1016.97 1016.85 1016.65 1016.81 1016.97 1017.17 1017.29 1016.81 1016.45 1016.45 1016.57 1016.73 1016.97 1017.37 1017.69 1017.81 1018.05 1018.29 1018.45 1018.81 1019.01 1019.13 1019.29 1019.45 1019.49 1019.45 1019.57 1019.49 1019.49 1019.53 1019.61 1019.57 1019.45 1019.33 1019.29 1019.21 1019.13
1017.13 1016.61 1016.65 1016.61 1016.77 1016.97 1017.09 1017.09 1016.81 1016.61 1016.89 1017.33 1017.53 1017.05 1016.29 1016.13 1016.37 1016.61 1016.89 1017.29 1017.65 1017.85 1018.01 1018.25 1018.49 1018.57 1018.65 1018.77 1018.93 1019.17 1019.29 1019.29 1019.29 1019.29 1019.29 1019.33 1019.45 1019.49 1019.33 1019.13 1018.97 1018.89
1017.13 1017.01 1016.93 1016.93 1016.93 1016.93 1017.01 1017.01 1016.97 1016.97 1016.97 1017.17 1017.57 1017.57 1017.33 1016.57 1016.01 1016.25 1016.61 1016.77 1017.13 1017.45 1017.81 1017.89 1017.97 1018.01 1018.17 1018.41 1018.61 1018.73 1018.89 1019.09 1019.21 1019.21 1019.09 1019.09 1019.17 1019.25 1019.33 1019.09 1018.85 1018.65
1017.21 1017.17 1017.17 1017.17 1017.05 1017.09 1017.13 1017.17 1017.17 1017.09 1017.17 1017.17 1016.93 1016.89 1016.69 1016.77 1016.81 1016.17 1015.97 1016.25 1016.53 1016.89 1017.29 1017.41 1017.49 1017.41 1017.69 1018.01 1018.21 1018.41 1018.53 1018.69 1018.85 1019.01 1019.01 1018.97 1018.85 1018.85 1018.81 1018.77 1018.69 1018.57
1017.37 1017.37 1017.45 1017.45 1017.37 1017.25 1017.05 1017.05 1017.21 1017.25 1017.09 1016.65 1016.21 1015.81 1015.85 1016.25 1016.41 1016.53 1016.37 1015.93 1016.09 1016.53 1016.81 1016.89 1017.01 1016.97 1017.25 1017.49 1017.73 1017.93 1018.13 1018.29 1018.45 1018.57 1018.73 1018.77 1018.65 1018.53 1018.45 1018.45 1018.41 1018.41
1017.49 1017.29 1017.41 1017.57 1017.53 1017.41 1017.29 1017.21 1017.21 1017.21 1016.89 1016.37 1015.85 1015.57 1015.77 1016.17 1016.45 1016.69 1016.73 1016.81 1016.49 1016.33 1016.41 1016.45 1016.57 1016.57 1016.85 1017.09 1017.29 1017.41 1017.57 1017.85 1017.93 1018.05 1018.17 1018.21 1018.25 1018.21 1018.13 1018.09 1018.05 1018.13
1017.53 1017.29 1017.41 1017.57 1017.61 1017.53 1017.45 1017.37 1017.21 1016.97 1016.85 1016.53 1016.17 1016.33 1016.69 1016.49 1016.33 1016.41 1016.53 1016.57 1016.69 1016.61 1016.49 1016.37 1016.25 1016.25 1016.61 1016.81 1017.01 1017.13 1017.21 1017.41 1017.41 1017.49 1017.61 1017.69 1017.61 1017.61 1017.61 1017.61 1017.57 1017.57
1017.37 1017.25 1017.33 1017.53 1017.61 1017.49 1017.37 1017.29 1017.21 1016.97 1016.85 1016.61 1016.49 1016.33 1016.13 1016.09 1016.09 1016.25 1016.37 1016.33 1016.25 1016.33 1016.45 1016.33 1015.85 1015.85 1016.09 1016.41 1016.65 1016.81 1016.93 1017.29 1017.17 1017.25 1017.29 1017.25 1017.21 1017.09 1017.09 1017.05 1017.01 1017.09
1017.25 1017.29 1017.37 1017.49 1017.69 1017.69 1017.45 1017.17 1017.01 1017.01 1016.85 1016.57 1016.69 1016.69 1016.65 1016.57 1016.49 1016.29 1016.13 1016.21 1016.21 1016.25 1016.45 1016.41 1016.09 1015.69 1015.85 1016.09 1016.29 1016.57 1017.05 1017.21 1017.09 1017.13 1017.09 1017.05 1016.89 1016.69 1016.61 1016.61 1016.65 1016.65
1017.81 1017.89 1018.01 1017.97 1017.89 1017.89 1017.61 1017.25 1016.85 1016.69 1016.69 1016.53 1016.77 1016.89 1016.89 1016.65 1016.37 1016.29 1016.13 1016.09 1016.25 1016.37 1016.41 1016.73 1016.73 1016.81 1016.65 1016.57 1016.57 1016.41 1016.49 1016.73 1016.85 1016.93 1016.89 1016.81 1016.65 1016.37 1016.29 1016.29 1016.17 1016.09
1018.05 1018.01 1018.01 1017.89 1017.77 1017.57 1017.37 1017.29 1017.05 1016.81 1016.61 1016.49 1016.65 1016.77 1016.89 1016.77 1016.61 1016.57 1016.37 1016.13 1016.05 1016.13 1016.17 1016.97 1017.53 1016.81 1015.69 1015.21 1015.21 1015.81 1016.61 1016.81 1016.69 1016.77 1016.85 1016.65 1016.49 1016.41 1016.09 1016.01 1015.89 1015.73
1017.93 1017.89 1017.77 1017.69 1017.57 1017.33 1017.13 1017.09 1016.93 1016.85 1016.77 1016.73 1016.73 1016.77 1016.81 1016.65 1016.53 1016.49 1016.49 1016.25 1015.97 1016.05 1016.13 1016.37 1016.21 1015.53 1014.73 1014.89 1015.57 1016.01 1016.29 1016.53 1016.65 1016.89 1016.85 1016.45 1016.25 1016.21 1016.21 1015.89 1015.69 1015.57
Wind_Speed
5 6 6 7 7 7 6 6 6 7 6 5 5 5 6 6 5 6 6 5 4 5 5 4 4 4 3 3 2 5 5 5 5 5 4 4 3 4 4 3 2 3
6 6 5 5 6 6 6 6 5 7 6 6 6 5 6 4 4 7 6 5 4 4 4 4 3 3 3 3 2 3 4 3 4 4 4 4 4 4 5 3 4 2
6 6 7 6 7 6 7 6 5 5 6 6 6 6 5 4 5 5 6 5 4 4 4 4 4 3 3 3 3 2 3 2 3 3 4 4 4 4 4 3 3 3
6 7 7 6 6 6 6 7 6 5 5 5 6 6 5 5 5 4 5 6 4 4 4 4 4 4 3 4 3 3 3 3 3 2 2 3 4 4 4 3 3 3
7 7 6 6 5 6 5 7 7 7 6 5 4 5 6 5 5 5 5 5 4 4 4 5 4 4 3 4 4 4 3 4 3 3 3 2 3 3 3 3 4 3
6 6 6 7 6 7 7 6 6 8 6 6 7 4 5 5 7 6 5 5 5 5 5 5 5 5 4 4 4 4 3 5 3 3 3 3 3 3 2 3 4 4
9 7 7 7 6 7 9 6 6 7 7 6 6 5 5 5 6 7 6 6 5 4 6 5 5 5 5 5 5 5 4 4 4 3 4 3 3 3 4 1 1 2
10 8 7 6 8 6 9 8 7 7 7 5 8 7 6 6 6 5 6 6 5 5 4 6 6 6 6 5 5 5 4 4 4 5 4 4 3 4 4 4 3 3
10 9 8 7 8 6 8 9 8 7 7 7 7 7 6 6 6 6 7 7 6 6 6 5 7 7 6 6 6 6 5 4 4 4 5 4 4 4 5 4 4 3
10 9 10 9 8 7 7 8 8 7 7 8 7 6 7 7 7 7 6 7 8 7 8 6 7 7 7 7 7 7 7 6 4 5 6 6 6 5 5 4 5 4
4 8 11 11 9 8 8 8 7 8 8 8 8 7 7 7 7 7 6 7 9 8 7 7 7 7 7 7 7 7 8 8 7 5 6 6 7 6 6 5 5 5
3 2 0 6 11 10 10 8 8 6 9 8 8 8 6 8 8 8 8 7 7 8 6 7 6 7 7 7 7 6 7 7 8 6 6 7 7 7 6 6 6 7
3 3 2 3 2 2 3 3 4 8 7 9 9 9 7 6 8 9 8 8 8 8 7 6 6 6 6 6 6 6 6 7 7 7 7 6 6 7 7 7 6 6
1 2 2 2 1 1 0 1 4 8 5 5 9 10 10 7 8 10 9 9 9 9 8 6 6 6 5 5 6 6 6 6 7 7 7 6 6 6 6 6 7 7
4 1 2 2 3 1 1 1 1 2 4 8 5 9 9 11 7 9 9 9 9 10 9 8 7 8 6 6 6 7 6 6 8 8 7 7 7 7 7 7 7 7
3 1 1 2 2 1 1 2 2 1 1 3 8 8 8 10 10 6 9 10 10 10 9 8 8 7 10 13 11 8 8 7 6 8 8 7 7 8 8 8 9 8
3 3 2 3 2 1 1 1 1 3 2 3 7 11 10 6 10 11 7 9 11 10 11 10 9 9 15 15 15 15 10 9 7 6 7 8 7 7 8 8 7 8
6 5 4 3 2 2 2 1 2 3 6 6 4 1 2 6 8 8 10 8 10 10 11 11 10 12 16 17 17 16 14 10 9 7 6 8 9 8 8 8 8 8
7 7 6 6 5 4 2 2 1 4 5 3 3 5 5 4 4 5 7 8 8 11 11 11 10 14 16 18 18 19 18 14 9 9 9 7 7 9 9 8 7 7
6 6 6 6 5 3 3 2 3 3 3 4 5 4 3 2 3 3 4 6 6 6 9 11 11 13 17 17 18 20 20 17 11 11 10 10 8 8 8 9 8 8
6 7 6 5 5 3 1 0 0 2 4 5 5 3 4 3 3 3 3 3 5 7 5 7 9 14 16 18 18 19 20 17 13 12 10 10 11 9 9 9 9 9
5 5 6 6 5 4 3 1 1 2 2 1 2 3 2 4 4 3 4 4 4 5 6 8 8 13 16 18 19 19 20 13 12 12 12 11 11 10 10 9 9 10
7 6 7 6 6 5 4 3 3 2 2 2 2 1 2 4 4 5 4 6 6 5 6 6 7 9 11 16 17 18 13 9 10 10 10 11 11 10 9 8 8 8
5 4 3 3 4 5 6 5 4 3 4 3 4 4 3 3 4 4 5 5 6 7 6 6 6 15 17 3 9 14 15 12 10 10 12 12 12 11 9 8 9 13
3 4 4 5 5 5 4 5 5 4 4 4 4 4 4 4 4 5 5 5 5 6 7 5 8 6 14 10 13 12 10 8 8 9 11 11 11 11 10 9 10 11
4 4 5 7 7 5 3 4 3 4 4 3 3 3 4 5 5 5 6 6 6 5 4 7 7 11 15 16 8 6 11 8 7 8 11 12 11 10 10 10 10 10
Wind_Direction
175 165 162 157 161 164 163 164 169 168 172 171 176 189 190 197 197 173 182 192 179 183 181 167 172 170 189 178 182 154 170 181 189 188 195 207 225 243 268 267 272 259
178 168 161 158 158 161 165 170 169 168 177 172 180 179 199 201 194 169 180 184 183 178 174 164 168 179 179 179 176 150 176 176 176 184 189 194 215 234 256 259 239 269
175 168 168 168 170 167 169 171 171 170 177 182 179 181 186 177 173 169 176 181 184 178 176 172 173 187 180 176 168 170 187 177 195 191 188 203 216 228 251 254 235 235
184 180 176 177 169 173 168 166 177 182 178 166 184 186 177 171 163 172 173 185 180 179 177 177 182 191 187 179 171 185 195 205 216 184 175 218 216 221 250 261 240 236
187 184 183 181 176 177 168 172 175 183 180 188 181 174 171 160 162 173 172 183 179 184 184 188 186 191 189 178 185 190 196 203 212 188 196 211 237 224 257 272 269 250
189 185 184 185 184 178 184 181 176 177 179 177 194 169 177 164 170 170 178 187 184 186 195 188 190 190 190 177 188 204 203 202 207 181 192 208 236 226 257 261 263 256
190 188 186 187 192 181 187 189 180 176 178 175 181 186 181 157 178 170 172 183 189 188 190 192 193 195 192 176 189 208 215 196 208 186 193 220 222 246 245 247 314 281
194 189 190 187 196 183 189 187 186 178 182 168 177 186 185 173 170 174 176 179 192 206 206 192 192 195 193 180 186 204 211 203 206 192 198 214 212 229 255 265 261 277
184 189 192 194 199 197 189 190 188 181 181 180 180 180 183 183 179 177 177 180 192 204 215 209 195 196 195 187 192 197 205 215 199 196 199 210 215 219 226 236 243 247
187 183 189 198 203 207 201 191 188 187 178 187 182 182 183 190 184 188 174 186 194 201 213 206 201 196 195 190 191 194 201 211 216 201 202 210 212 213 217 216 223 231
172 186 188 190 203 206 210 204 194 187 181 185 188 188 187 182 189 191 186 187 198 203 209 209 199 199 195 195 195 197 198 204 215 209 211 210 209 212 214 214 221 216
130 105 203 202 196 201 209 208 205 199 185 186 185 194 190 185 182 192 194 194 200 202 204 211 196 199 201 201 200 198 201 205 210 214 208 210 214 212 214 211 216 222
118 119 111 22 42 67 23 332 247 209 195 192 188 194 196 190 190 186 195 197 201 201 206 208 206 199 203 205 206 208 203 203 208 213 216 210 207 211 213 213 215 213
339 90 85 121 290 322 100 56 19 349 309 214 188 195 199 201 194 194 190 194 200 203 208 200 203 209 208 211 209 210 212 212 212 210 213 220 221 220 219 220 221 226
293 64 113 103 106 349 264 136 36 326 349 332 256 197 197 206 204 197 195 192 197 200 204 203 199 207 208 209 213 219 218 218 216 212 213 217 223 225 225 226 225 225
306 48 61 92 93 90 20 330 289 164 237 346 346 294 216 195 209 198 197 197 195 197 199 202 205 205 209 210 209 214 222 227 218 218 216 214 216 224 229 225 229 230
11 24 20 44 54 80 7 330 298 339 34 33 28 12 332 271 206 206 199 198 199 195 199 203 204 207 204 207 211 213 215 223 227 224 219 216 212 215 224 227 230 230
20 10 15 20 18 2 12 38 10 66 78 67 67 355 299 329 301 234 210 194 197 198 201 205 209 206 198 203 208 212 213 217 225 231 227 222 222 218 220 223 227 229
27 23 18 14 15 347 305 249 176 108 105 137 190 191 183 231 258 302 266 220 191 196 204 207 211 208 201 200 205 209 211 213 221 226 229 234 229 227 223 222 223 229
17 26 23 7 1 16 2 23 108 146 177 211 237 230 176 203 262 305 338 314 263 209 201 209 212 211 206 204 206 207 209 207 219 218 223 229 228 227 229 225 222 222
14 21 10 2 353 352 26 316 215 201 189 221 264 326 1 305 272 246 253 295 312 285 239 206 213 210 207 209 210 210 213 207 215 218 221 224 227 225 223 224 225 225
9 15 5 349 340 340 352 333 306 260 265 241 282 308 260 250 266 280 273 263 263 283 280 251 226 201 202 208 210 214 215 212 217 218 220 223 223 224 222 222 222 224
5 6 354 350 336 332 336 339 327 308 296 307 298 290 294 298 299 282 271 269 270 271 281 281 277 247 207 202 211 220 218 220 222 224 226 227 227 224 222 219 219 219
349 348 333 309 320 324 324 318 317 312 307 311 303 316 313 288 281 276 278 279 280 284 286 306 341 14 19 19 244 227 206 211 218 220 226 226 231 232 230 229 222 217
343 344 337 321 310 310 313 312 308 305 312 325 317 313 297 291 287 291 287 285 281 284 303 39 65 291 273 242 189 197 208 235 229 224 229 231 231 234 233 234 238 237
342 345 337 326 317 307 313 299 295 305 308 309 296 276 280 272 265 262 271 281 286 288 287 131 187 223 238 245 254 206 189 203 220 231 233 234 231 233 236 234 236 239